• In Russia
  • List of Countries
  • For 7 days
  • Water Temperature
  • Weather Map
  • Weather Widgets
  • user-avatar
    Login

    Hourly Weather Lubango

    Today, 3 April, Friday

    Time Temperature Precipitation Wind Pressure Humidity
    00:00 +18°C° 0 mm 1 mps 608 mmHg 78%
    01:00 +18°C° 0 mm 1 mps 608 mmHg 79%
    02:00 +18°C° 0 mm 1 mps 607 mmHg 77%
    03:00 +16°C° 0 mm 1 mps 607 mmHg 75%
    04:00 +16°C° 0 mm 1 mps 607 mmHg 74%
    05:00 +18°C° 0 mm 1 mps 607 mmHg 74%
    06:00 +18°C° 0 mm 1 mps 608 mmHg 74%
    07:00 +18°C° 0 mm 1 mps 608 mmHg 75%
    08:00 +20°C° 0 mm 1 mps 609 mmHg 69%
    09:00 +22°C° 0 mm 1 mps 610 mmHg 64%
    10:00 +24°C° 0 mm 1 mps 610 mmHg 59%
    11:00 +24°C° 0.1 mm 1 mps 610 mmHg 58%
    12:00 +25°C° 0.1 mm 2 mps 610 mmHg 57%
    13:00 +26°C° 0.1 mm 2 mps 610 mmHg 55%
    14:00 +25°C° 0.3 mm 2 mps 609 mmHg 59%
    15:00 +24°C° 0.3 mm 2 mps 608 mmHg 62%
    16:00 +24°C° 0.3 mm 2 mps 608 mmHg 66%
    17:00 +21°C° 0.1 mm 2 mps 607 mmHg 72%
    18:00 +20°C° 0.1 mm 1 mps 607 mmHg 78%
    19:00 +18°C° 0.1 mm 1 mps 607 mmHg 84%
    20:00 +18°C° 0 mm 1 mps 607 mmHg 86%
    21:00 +16°C° 0 mm 1 mps 607 mmHg 87%
    22:00 +16°C° 0 mm 1 mps 607 mmHg 89%
    23:00 +16°C° 0 mm 1 mps 607 mmHg 89%

    Tomorrow, 4 April, Saturday

    Time Temperature Precipitation Wind Pressure Humidity
    00:00 +16°C° 0 mm 1 mps 607 mmHg 89%
    01:00 +16°C° 0 mm 1 mps 607 mmHg 89%
    02:00 +15°C° 0 mm 2 mps 607 mmHg 90%
    03:00 +15°C° 0 mm 2 mps 606 mmHg 90%
    04:00 +15°C° 0 mm 2 mps 606 mmHg 91%
    05:00 +15°C° 0 mm 2 mps 606 mmHg 91%
    06:00 +15°C° 0 mm 2 mps 607 mmHg 91%
    07:00 +16°C° 0 mm 2 mps 607 mmHg 91%
    08:00 +18°C° 0 mm 2 mps 608 mmHg 82%
    09:00 +20°C° 0 mm 2 mps 609 mmHg 74%
    10:00 +23°C° 0 mm 2 mps 610 mmHg 66%
    11:00 +24°C° 0.2 mm 2 mps 610 mmHg 65%
    12:00 +24°C° 0.2 mm 2 mps 610 mmHg 63%
    13:00 +25°C° 0.2 mm 2 mps 609 mmHg 62%
    14:00 +24°C° 0.6 mm 1 mps 609 mmHg 65%
    15:00 +24°C° 0.6 mm 1 mps 608 mmHg 67%
    16:00 +23°C° 0.6 mm 1 mps 607 mmHg 70%
    17:00 +21°C° 0.5 mm 1 mps 607 mmHg 76%
    18:00 +20°C° 0.5 mm 1 mps 607 mmHg 82%
    19:00 +18°C° 0.5 mm 1 mps 607 mmHg 88%
    20:00 +18°C° 0.6 mm 1 mps 607 mmHg 88%
    21:00 +16°C° 0.6 mm 1 mps 608 mmHg 89%
    22:00 +16°C° 0.6 mm 1 mps 608 mmHg 90%
    23:00 +16°C° 0.4 mm 1 mps 608 mmHg 89%

    Day after tomorrow, 5 April, Sunday

    Time Temperature Precipitation Wind Pressure Humidity
    00:00 +16°C° 0.4 mm 1 mps 608 mmHg 89%
    01:00 +16°C° 0.4 mm 1 mps 608 mmHg 88%
    02:00 +15°C° 0.2 mm 1 mps 608 mmHg 88%
    03:00 +14°C° 0.2 mm 0 mps 607 mmHg 88%
    04:00 +14°C° 0.2 mm 0 mps 607 mmHg 88%
    05:00 +14°C° 0 mm 0 mps 608 mmHg 89%
    06:00 +14°C° 0 mm 0 mps 608 mmHg 89%
    07:00 +15°C° 0 mm 1 mps 609 mmHg 90%
    08:00 +18°C° 0.2 mm 1 mps 609 mmHg 85%
    09:00 +20°C° 0.2 mm 1 mps 610 mmHg 80%
    10:00 +21°C° 0.2 mm 1 mps 611 mmHg 74%
    11:00 +22°C° 0.5 mm 1 mps 610 mmHg 72%
    12:00 +23°C° 0.5 mm 2 mps 610 mmHg 70%
    13:00 +23°C° 0.5 mm 2 mps 610 mmHg 68%
    14:00 +23°C° 1 mm 2 mps 609 mmHg 71%
    15:00 +21°C° 1 mm 2 mps 609 mmHg 75%
    16:00 +21°C° 1 mm 2 mps 608 mmHg 78%
    17:00 +19°C° 0.5 mm 2 mps 608 mmHg 82%
    18:00 +19°C° 0.5 mm 1 mps 608 mmHg 86%
    19:00 +16°C° 0.5 mm 1 mps 608 mmHg 91%
    20:00 +16°C° 0.1 mm 1 mps 608 mmHg 91%
    21:00 +16°C° 0.1 mm 1 mps 608 mmHg 92%
    22:00 +16°C° 0.1 mm 1 mps 608 mmHg 92%
    23:00 +15°C° 0 mm 1 mps 608 mmHg 92%

    6 April, Monday

    Time Temperature Precipitation Wind Pressure Humidity
    00:00 +15°C° 0 mm 1 mps 608 mmHg 91%
    01:00 +15°C° 0 mm 1 mps 607 mmHg 91%
    02:00 +15°C° 0 mm 1 mps 607 mmHg 91%
    03:00 +15°C° 0 mm 1 mps 607 mmHg 90%
    04:00 +15°C° 0 mm 2 mps 607 mmHg 90%
    05:00 +15°C° 0 mm 2 mps 607 mmHg 89%
    06:00 +16°C° 0 mm 2 mps 607 mmHg 88%
    07:00 +16°C° 0 mm 2 mps 608 mmHg 88%
    08:00 +18°C° 0 mm 2 mps 609 mmHg 81%
    09:00 +20°C° 0 mm 2 mps 610 mmHg 74%
    10:00 +22°C° 0 mm 3 mps 611 mmHg 67%
    11:00 +23°C° 0.3 mm 2 mps 610 mmHg 65%
    12:00 +24°C° 0.3 mm 2 mps 610 mmHg 64%
    13:00 +24°C° 0.3 mm 2 mps 609 mmHg 63%
    14:00 +24°C° 1.2 mm 1 mps 609 mmHg 66%
    15:00 +23°C° 1.2 mm 1 mps 608 mmHg 70%
    16:00 +20°C° 1.2 mm 0 mps 608 mmHg 74%
    17:00 +19°C° 0.7 mm 0 mps 607 mmHg 78%
    18:00 +17°C° 0.7 mm 0 mps 607 mmHg 82%
    19:00 +16°C° 0.7 mm 0 mps 607 mmHg 86%
    20:00 +15°C° 0.2 mm 0 mps 607 mmHg 87%
    21:00 +16°C° 0.2 mm 1 mps 608 mmHg 88%
    22:00 +16°C° 0.2 mm 1 mps 608 mmHg 89%
    23:00 +16°C° 0.1 mm 1 mps 608 mmHg 89%

    7 April, Tuesday

    Time Temperature Precipitation Wind Pressure Humidity
    00:00 +15°C° 0.1 mm 1 mps 608 mmHg 88%
    01:00 +15°C° 0.1 mm 1 mps 607 mmHg 87%
    02:00 +15°C° 0 mm 1 mps 607 mmHg 87%
    03:00 +15°C° 0 mm 1 mps 607 mmHg 86%
    04:00 +15°C° 0 mm 1 mps 607 mmHg 85%
    05:00 +16°C° 0 mm 1 mps 607 mmHg 85%
    06:00 +16°C° 0 mm 1 mps 607 mmHg 85%
    07:00 +16°C° 0 mm 1 mps 608 mmHg 85%
    08:00 +19°C° 0.1 mm 1 mps 609 mmHg 79%
    09:00 +21°C° 0.1 mm 1 mps 609 mmHg 72%
    10:00 +23°C° 0.1 mm 2 mps 610 mmHg 66%
    11:00 +23°C° 0.6 mm 2 mps 610 mmHg 67%
    12:00 +23°C° 0.6 mm 2 mps 609 mmHg 67%
    13:00 +23°C° 0.6 mm 2 mps 608 mmHg 67%
    14:00 +23°C° 0.9 mm 2 mps 608 mmHg 69%
    15:00 +23°C° 0.9 mm 1 mps 608 mmHg 71%
    16:00 +22°C° 0.9 mm 1 mps 607 mmHg 72%
    17:00 +21°C° 0.4 mm 1 mps 607 mmHg 77%
    18:00 +19°C° 0.4 mm 1 mps 607 mmHg 82%
    19:00 +18°C° 0.4 mm 1 mps 606 mmHg 87%
    20:00 +16°C° 0.1 mm 1 mps 607 mmHg 88%
    21:00 +16°C° 0.1 mm 1 mps 607 mmHg 88%
    22:00 +16°C° 0.1 mm 1 mps 607 mmHg 89%
    23:00 +16°C° 0 mm 1 mps 607 mmHg 88%

    8 April, Wednesday

    Time Temperature Precipitation Wind Pressure Humidity
    00:00 +15°C° 0 mm 1 mps 607 mmHg 87%
    01:00 +15°C° 0 mm 1 mps 606 mmHg 86%
    02:00 +15°C° 0 mm 1 mps 606 mmHg 86%
    03:00 +15°C° 0 mm 1 mps 606 mmHg 86%
    04:00 +15°C° 0 mm 1 mps 606 mmHg 86%
    05:00 +15°C° 0.1 mm 1 mps 606 mmHg 86%
    06:00 +16°C° 0.1 mm 1 mps 607 mmHg 86%
    07:00 +16°C° 0.1 mm 1 mps 607 mmHg 87%
    08:00 +18°C° 0.1 mm 2 mps 608 mmHg 80%
    09:00 +20°C° 0.1 mm 2 mps 609 mmHg 74%
    10:00 +22°C° 0.1 mm 3 mps 610 mmHg 68%
    11:00 +23°C° 0.5 mm 2 mps 610 mmHg 67%
    12:00 +23°C° 0.5 mm 2 mps 609 mmHg 66%
    13:00 +23°C° 0.5 mm 2 mps 609 mmHg 65%
    14:00 +23°C° 0.7 mm 2 mps 608 mmHg 69%
    15:00 +22°C° 0.7 mm 1 mps 608 mmHg 72%
    16:00 +22°C° 0.7 mm 1 mps 607 mmHg 75%
    17:00 +20°C° 0.2 mm 1 mps 607 mmHg 79%
    18:00 +19°C° 0.2 mm 1 mps 607 mmHg 83%
    19:00 +15°C° 0.2 mm 0 mps 607 mmHg 87%
    20:00 +16°C° 0 mm 1 mps 607 mmHg 87%
    21:00 +16°C° 0 mm 1 mps 607 mmHg 88%
    22:00 +15°C° 0 mm 1 mps 607 mmHg 88%
    23:00 +15°C° 0 mm 1 mps 607 mmHg 88%
    Show more